Weather History for EGJB - March, 2013

Change the Weather History Date:

Saturday, March 16, 2013

  Actual Average (LFRC) Record (LFRC)
Temperature  
Mean Temperature 46 °F -  
Max Temperature 49 °F 50 °F - (-1)
Min Temperature 42 °F 43 °F - (-1)
Degree Days  
Heating Degree Days 20    
Moisture  
Dew Point 42 °F    
Average Humidity 87    
Maximum Humidity 93    
Minimum Humidity 69    
Precipitation  
Precipitation 0.12 in - - ()
Sea Level Pressure  
Sea Level Pressure 29.41 in    
Wind  
Wind Speed 19 mph ()    
Max Wind Speed 28 mph    
Max Gust Speed 40 mph    
Visibility 7.7 miles    
Events Rain    
Averages and records for this station are not official NWS values.
T = Trace of Precipitation, MM = Missing Value Source: Averaged Metar Reports

Daily Weather History Graph

Daily Weather History Graph

Search for Another Location

Airport or City:

Trip Planner

Search our weather history database for the weather conditions in past years. The results will help you decide how hot, cold, wet, or windy it might be!

Date:

Astronomy

Mar. 16, 2013 Rise Set
Actual Time 6:21 AM GMT 6:17 PM GMT
Civil Twilight 5:49 AM GMT 6:49 PM GMT
Nautical Twilight 5:12 AM GMT 7:26 PM GMT
Astronomical Twilight 4:34 AM GMT 8:04 PM GMT
Moon 8:14 AM GMT (3/16) 11:42 PM GMT (3/16)
Length of Visible Light 12h 59m
Length of Day
11h 55m
Waxing Crescent, 21% of the Moon is Illuminated
Mar 16
Waxing Crescent
Mar 19
First Quarter
Mar 27
Full
Apr 3
Last Quarter
Apr 10
New

Hourly Weather History & Observations

Time (GMT) Temp. Windchill Dew Point Humidity Pressure Visibility Wind Dir Wind Speed Gust Speed Precip Events Conditions
12:00 AM 45 °F - 42 °F 85% 29.64 in 19 mi South 20.7 mph - -   Scattered Clouds
3:00 AM 45 °F - 41 °F 80% 29.55 in 16 mi South 25.3 mph - -   Scattered Clouds
3:50 AM 44.6 °F 35.9 °F 42.8 °F 93% 29.50 in 6.2 mi South 23.0 mph - N/A   Mostly Cloudy
4:20 AM 44.6 °F 36.9 °F 42.8 °F 93% 29.47 in 6.2 mi South 18.4 mph 29.9 mph N/A   Mostly Cloudy
4:50 AM 44.6 °F 35.5 °F 42.8 °F 93% 29.47 in 6.2 mi South 25.3 mph - N/A Rain Light Rain
5:20 AM 44.6 °F 36.1 °F 42.8 °F 93% 29.44 in 6.2 mi South 21.9 mph 33.4 mph N/A Rain Light Rain
5:50 AM 44.6 °F 36.4 °F 42.8 °F 93% 29.44 in 6.2 mi South 20.7 mph 36.8 mph N/A   Mostly Cloudy
6:00 AM 45 °F - 42 °F 86% 29.46 in 16 mi South 20.7 mph - - Rain Light Rain
6:20 AM 44.6 °F 35.1 °F 41.0 °F 87% 29.42 in 6.2 mi South 27.6 mph 40.3 mph N/A Rain Light Rain
6:50 AM 42.8 °F 33.1 °F 41.0 °F 93% 29.42 in 3.7 mi South 25.3 mph 38.0 mph N/A Rain Rain
7:20 AM 42.8 °F 33.1 °F 41.0 °F 93% 29.44 in 3.7 mi SSW 25.3 mph - N/A Rain Rain
7:50 AM 42.8 °F 32.9 °F 41.0 °F 93% 29.44 in 3.7 mi SSW 26.5 mph - N/A Rain Rain
8:20 AM 42.8 °F 33.5 °F 41.0 °F 93% 29.44 in 6.2 mi SSW 23.0 mph - N/A Rain Light Rain
8:50 AM 42.8 °F 34.0 °F 41.0 °F 93% 29.44 in 6.2 mi SSW 20.7 mph - N/A   Mostly Cloudy
9:00 AM 43 °F - 41 °F 92% 29.46 in 16 mi SSW 20.7 mph - - Rain Light Rain
9:20 AM 42.8 °F 34.0 °F 41.0 °F 93% 29.42 in 6.2 mi SSW 20.7 mph - N/A   Scattered Clouds
9:50 AM 44.6 °F 36.9 °F 42.8 °F 93% 29.42 in 6.2 mi SSW 18.4 mph - N/A   Partly Cloudy
10:20 AM 44.6 °F 37.4 °F 42.8 °F 93% 29.42 in 6.2 mi South 16.1 mph - N/A   Partly Cloudy
10:50 AM 44.6 °F 36.9 °F 42.8 °F 93% 29.42 in 6.2 mi SSW 18.4 mph - N/A   Partly Cloudy
11:20 AM 46.4 °F 39.2 °F 42.8 °F 87% 29.42 in 6.2 mi South 18.4 mph - N/A   Partly Cloudy
11:50 AM 46.4 °F 39.5 °F 42.8 °F 87% 29.39 in 6.2 mi South 17.3 mph - N/A   Partly Cloudy
12:00 PM 46 °F - 43 °F 87% 29.42 in 25 mi South 17.3 mph - -   Partly Cloudy
12:20 PM 46.4 °F 39.2 °F 44.6 °F 93% 29.39 in 6.2 mi South 18.4 mph - N/A   Partly Cloudy
12:50 PM 46.4 °F 39.0 °F 42.8 °F 87% 29.39 in 6.2 mi South 19.6 mph - N/A   Scattered Clouds
1:20 PM 46.4 °F 40.1 °F 44.6 °F 93% 29.39 in 6.2 mi South 15.0 mph - N/A   Partly Cloudy
1:50 PM 46.4 °F 40.1 °F 42.8 °F 87% 29.36 in 6.2 mi SSE 15.0 mph - N/A   Scattered Clouds
2:20 PM 46.4 °F 39.5 °F 42.8 °F 87% 29.36 in 6.2 mi South 17.3 mph - N/A   Scattered Clouds
2:50 PM 50.0 °F - 44.6 °F 82% 29.36 in 6.2 mi South 15.0 mph - N/A   Scattered Clouds
3:00 PM 49 °F - 44 °F 76% 29.38 in 14 mi South 15.0 mph - -   Partly Cloudy
3:20 PM 48.2 °F - 42.8 °F 82% 29.36 in 6.2 mi SSW 17.3 mph - N/A   Scattered Clouds
3:50 PM 48.2 °F - 42.8 °F 82% 29.36 in 6.2 mi SSW 17.3 mph - N/A   Scattered Clouds
4:20 PM 48.2 °F - 42.8 °F 82% 29.33 in 6.2 mi SSW 20.7 mph - N/A   Scattered Clouds
4:50 PM 48.2 °F - 42.8 °F 82% 29.33 in 6.2 mi SW 21.9 mph 35.7 mph N/A   Partly Cloudy
5:20 PM 48.2 °F - 39.2 °F 71% 29.36 in 6.2 mi SW 23.0 mph - N/A   Partly Cloudy
5:50 PM 46.4 °F 38.5 °F 39.2 °F 76% 29.36 in 6.2 mi SW 21.9 mph - N/A   Partly Cloudy
6:00 PM 46 °F - 39 °F 69% 29.37 in 17 mi SW 21.9 mph - -   Scattered Clouds
6:20 PM 46.4 °F 38.3 °F 41.0 °F 81% 29.36 in 6.2 mi SW 23.0 mph - N/A   Partly Cloudy
6:50 PM 44.6 °F 35.7 °F 41.0 °F 87% 29.36 in 6.2 mi SW 24.2 mph 39.1 mph N/A   Scattered Clouds
7:20 PM 44.6 °F 35.7 °F 41.0 °F 87% 29.36 in 6.2 mi SW 24.2 mph - N/A   Partly Cloudy
7:50 PM 44.6 °F 36.1 °F 41.0 °F 87% 29.36 in 6.2 mi SW 21.9 mph 33.4 mph N/A   Partly Cloudy
8:20 PM 44.6 °F 36.4 °F 41.0 °F 87% 29.36 in 6.2 mi SW 20.7 mph - N/A   Partly Cloudy
8:50 PM 44.6 °F 36.9 °F 41.0 °F 87% 29.36 in 6.2 mi SW 18.4 mph - N/A   Partly Cloudy
9:00 PM 45 °F - 41 °F 81% 29.39 in 16 mi SW 18.4 mph - -   Partly Cloudy